Regional Weather Roundup
Issued by NWS Goodland, KS

Home | Current Version | Previous Version | Graphics & Text | Print | Product List | Glossary Off
Versions: 1 2 3 4 5 6 7 8 9 10 11 12 13 14 15 16 17 18 19 20 21 22 23 24 25 26 27 28 29 30 31 32 33 34 35 36 37 38 39 40 41 42 43 44 45 46 47 48 49 50

000
ASUS43 KGLD 010808
RWRGLD

GOODLAND FORECAST AREA HOURLY WEATHER ROUNDUP
NATIONAL WEATHER SERVICE GOODLAND KS
100 AM MST SUN FEB 01 2015

...OFFICIAL OBSERVATIONS...

CITY           SKY/WX    TMP DP  RH WIND       PRES   REMARKS
GOODLAND KS    CLOUDY    23  21  92 N22G31    29.92R WCI   8
HILL CITY KS   MIX PCPN  26  22  84 N22       29.89R WCI  12
IMPERIAL NEB   MIX PCPN  19  13  77 N26G33    29.99R WCI   1
MCCOOK NEB     LGT SNOW  22  17  81 N21G31    29.95R WCI   6
AKRON CO       CLOUDY    22  21  96 N20       29.98R WCI   7
BURLINGTON CO  CLOUDY    25  22  88 N23G31    29.92R WCI  10
LIMON CO       LGT SNOW  27  25  92 N18       29.94R FOG     WCI  14
$$

...UNOFFICIAL OBSERVATIONS...

CITY           SKY/WX    TMP DP  RH WIND       PRES   REMARKS
COLBY KS       LGT SNOW  23  23 100 NW16      29.92R WCI  10
GOVE KS          N/A     27  32 100 MISG        N/A
NORTON KS      LGT SNOW  21  18  86 NW23G29   29.89R WCI   5
SHARON SPRINGS   N/A     27  25  92 N18G28      N/A  WCI  14
KIT CARSON CO    N/A     29  27  90 MISG        N/A
YUMA CO          N/A     23  20  89 N16         N/A  WCI  10
$$


USA.gov is the U.S. government's official web portal to all federal, state and local government web resources and services.